Theta_e
293 286 284 283 286 288 289 289 289 287 287 285 286 285 284 284 285 286 286 286 287 288 289 291 291 291 288 287 285 286 287 286 285 283 283 283 283 283 283 282 283 282 282 283 283 282 282 282 281 281 281 281 282 282 282 282 283 283 283 284 285 287 288 288 290 294 298 302 306 311 319 321 325 326 327 326 327 328 328 328 329 329 330 331 332 331
291 284 285 287 287 289 289 290 289 286 287 285 285 284 283 285 283 286 285 285 288 287 286 290 290 291 289 284 283 285 284 281 282 282 281 281 281 281 281 281 281 281 283 282 281 281 281 281 281 280 280 280 279 280 280 280 281 282 283 282 283 285 285 286 288 290 294 299 301 306 313 319 319 319 318 318 320 323 323 324 324 325 326 327 328 330
284 282 286 288 288 288 289 289 289 288 286 286 284 284 282 283 285 286 285 285 288 286 285 286 286 288 283 282 281 280 279 279 280 280 280 280 279 279 279 279 279 280 279 279 279 280 279 280 280 279 279 278 278 278 278 279 280 280 281 281 282 283 283 284 286 289 290 296 299 303 310 315 315 316 317 316 316 317 319 319 320 320 322 325 325 324
279 284 287 287 287 286 286 287 287 287 287 285 284 282 280 284 281 280 282 286 286 286 284 285 285 284 280 280 279 279 279 279 280 280 279 279 278 277 277 277 277 277 277 277 277 277 278 278 278 278 278 278 278 277 277 278 278 279 279 279 280 281 282 283 285 287 289 294 298 302 307 308 312 311 312 313 313 315 316 316 317 317 319 320 322 322
282 284 284 284 286 285 284 285 285 285 283 286 285 284 283 281 282 282 282 283 284 284 284 285 284 284 281 278 278 279 280 279 279 279 278 279 278 278 278 277 277 275 276 275 276 276 276 276 277 277 277 278 277 276 277 277 277 278 278 279 279 281 281 282 284 284 288 290 293 297 302 303 305 306 306 307 307 310 313 314 315 316 316 317 319 320
283 286 285 283 283 284 284 282 284 284 282 283 286 286 285 285 282 280 282 282 281 281 283 283 277 278 279 278 277 277 279 278 279 277 276 277 276 276 275 275 276 276 276 275 274 275 275 275 276 276 276 276 276 276 276 277 278 278 278 278 278 279 280 280 282 284 287 288 289 290 293 294 296 298 299 300 300 304 306 309 313 315 315 315 316 316
284 283 284 283 283 282 283 282 284 285 281 281 282 287 286 286 284 282 281 281 278 276 283 285 276 276 275 276 274 275 276 277 277 275 275 274 274 274 274 274 274 274 274 275 275 274 274 274 275 275 275 275 275 276 276 277 277 277 278 278 278 278 279 279 281 283 286 286 287 288 289 290 291 293 296 299 301 301 304 307 307 311 313 312 313 314
283 282 282 282 282 282 281 280 283 284 281 279 281 282 286 284 282 281 281 281 280 281 281 280 282 277 277 276 276 276 275 274 274 274 273 273 273 272 273 273 273 273 273 273 273 273 274 274 273 273 274 274 274 275 276 276 277 276 277 277 277 278 278 278 279 281 283 284 284 286 287 289 289 290 291 294 296 299 301 303 304 306 309 310 311 311
281 281 281 281 282 281 281 282 283 285 282 281 280 281 283 283 283 282 281 280 280 279 276 280 280 276 276 274 275 277 274 272 273 273 272 272 272 272 272 272 273 273 273 273 272 272 273 272 273 273 273 274 274 274 275 275 276 276 276 277 276 276 277 278 278 279 280 283 283 284 285 286 288 289 290 292 293 294 296 298 299 301 305 306 308 308
282 282 282 282 282 281 281 281 280 283 281 281 282 283 282 282 281 282 280 280 278 276 272 277 280 274 276 274 274 276 276 274 273 272 271 271 271 271 271 272 272 273 273 273 273 273 273 273 273 273 274 274 274 274 275 275 275 275 276 276 275 275 276 277 277 278 278 280 281 281 283 284 284 286 288 290 289 290 293 295 297 298 300 301 304 305
280 283 284 284 281 280 281 280 280 280 282 283 283 281 280 280 279 279 280 279 275 270 273 279 279 277 272 276 277 274 276 279 274 271 271 271 271 271 271 271 272 272 272 272 272 272 272 273 273 273 273 273 273 273 274 274 274 275 275 275 274 274 275 276 276 277 277 278 279 279 281 282 283 283 285 286 287 288 290 291 293 295 297 299 300 301
280 282 281 282 282 282 282 280 281 282 283 283 281 279 279 277 279 277 276 278 271 269 275 275 278 279 270 275 274 274 274 276 275 271 270 269 270 270 270 271 271 271 271 272 272 272 272 272 272 272 272 272 272 272 272 273 273 274 274 274 274 274 274 275 275 276 276 277 277 278 279 280 282 282 283 284 285 286 288 289 291 293 295 296 298 299
278 278 279 280 282 280 279 280 280 281 281 281 280 279 274 272 273 269 272 268 269 270 272 271 275 274 274 275 273 272 272 272 273 272 270 270 269 270 270 270 271 271 271 271 271 271 271 271 271 271 271 271 271 271 271 271 272 273 273 273 273 273 273 273 274 275 275 276 276 277 277 278 280 281 281 283 283 285 287 288 289 290 291 294 294 296
276 277 277 279 281 281 279 277 278 276 280 279 277 276 273 269 267 266 269 270 271 273 271 272 276 272 276 270 273 271 270 271 271 271 271 270 270 270 270 270 271 271 271 271 271 270 270 270 270 270 270 270 270 270 270 271 271 271 272 272 272 272 273 273 273 274 274 275 276 276 277 277 278 279 280 281 281 282 285 287 288 289 290 291 292 294
270 271 273 275 276 279 278 276 276 275 277 279 281 277 275 274 270 265 269 266 268 271 271 274 272 270 273 271 270 271 271 271 271 271 271 271 270 271 271 271 271 270 270 271 270 270 269 269 270 270 270 270 270 270 270 270 270 271 271 271 271 271 272 272 272 273 273 273 275 276 276 277 277 278 278 280 280 281 282 284 285 288 289 290 291 293
269 271 273 275 276 278 275 278 278 277 278 280 281 280 275 273 276 270 271 271 270 270 269 270 271 271 268 269 271 271 271 270 270 270 270 269 270 271 270 270 270 269 270 270 269 269 269 269 269 269 269 269 269 270 269 269 270 270 270 270 270 270 271 271 271 272 272 272 274 275 275 276 276 277 277 278 279 280 281 282 283 285 287 289 291 293
271 269 272 275 277 276 275 277 278 279 272 278 278 274 275 276 274 272 268 267 267 269 267 276 271 269 271 269 270 270 269 269 270 269 270 269 269 270 269 269 269 269 269 269 269 269 269 269 269 269 269 269 269 269 268 269 269 269 269 269 269 270 271 270 271 271 271 272 273 273 274 274 275 275 275 276 277 278 280 280 281 282 285 288 290 292
267 270 272 273 273 277 278 276 278 277 277 277 273 276 278 278 276 273 268 269 267 266 269 273 271 271 270 269 269 268 268 268 268 269 269 269 269 269 269 268 268 268 269 269 269 269 269 269 269 269 269 268 268 268 268 268 269 269 269 269 269 269 269 270 270 271 271 271 271 272 273 273 274 274 275 275 276 278 278 279 280 281 282 284 288 290
271 267 270 269 271 274 277 277 275 278 278 274 274 277 274 271 270 274 271 265 265 265 267 269 273 273 273 270 264 267 267 268 268 269 269 268 269 268 268 268 268 268 268 268 268 268 268 268 268 268 268 268 268 268 268 268 269 269 268 269 269 268 269 269 269 270 270 271 271 272 272 273 273 274 274 275 276 277 276 277 278 279 280 282 285 288
272 266 269 271 271 273 274 274 270 270 276 277 278 275 275 273 272 270 271 270 270 266 267 268 270 269 266 268 267 270 269 269 268 268 268 268 268 268 268 268 268 267 267 267 267 267 268 268 268 267 267 267 267 267 267 268 268 268 268 268 268 268 269 269 269 269 269 270 270 271 272 272 273 273 273 274 274 275 275 276 277 278 279 280 283 285
268 270 264 271 272 274 269 269 267 268 267 270 271 269 271 270 274 272 272 269 270 267 268 268 267 268 265 269 269 271 270 269 269 268 268 268 268 268 268 267 267 267 267 267 267 267 267 267 267 267 268 267 267 268 267 267 267 267 267 267 267 267 268 268 268 269 268 269 269 270 270 271 271 272 272 273 273 274 274 275 276 277 278 280 281 282
267 267 264 266 267 267 268 269 268 268 268 269 269 266 268 267 267 266 266 272 267 268 266 267 265 264 264 269 271 269 270 269 269 269 268 268 268 268 268 267 267 267 267 266 267 266 266 267 267 267 267 267 267 267 266 266 267 266 266 266 266 267 267 267 267 267 268 268 269 269 270 270 271 271 271 272 272 272 272 273 274 276 277 278 280 281
268 266 264 263 265 266 268 269 269 270 270 269 269 266 269 269 268 266 262 266 266 267 266 265 265 263 265 268 270 269 269 269 269 269 268 268 267 267 268 267 267 267 266 266 266 266 266 266 266 266 266 266 266 266 265 265 266 266 265 265 265 265 266 266 266 267 267 267 268 268 269 270 270 270 270 271 271 271 271 272 273 275 275 276 278 280
272 264 263 263 265 267 268 269 269 268 268 269 269 268 268 266 265 264 263 264 261 264 264 266 263 262 263 269 269 268 269 269 269 269 267 267 268 267 267 267 266 266 266 266 266 266 266 266 266 266 265 265 265 265 264 265 265 265 265 265 265 265 265 265 266 266 266 266 267 268 268 269 269 269 270 270 270 270 270 271 272 274 274 275 277 279
263 264 262 260 260 262 263 266 267 267 267 265 264 266 265 266 265 266 266 266 260 263 264 265 260 262 264 269 269 268 268 267 268 268 269 267 268 267 267 267 266 266 266 265 265 265 265 265 265 264 265 264 264 264 264 264 264 264 264 264 263 264 265 265 265 265 265 266 266 267 267 268 268 268 268 269 269 269 270 270 271 272 273 274 275 277
265 263 262 258 255 254 253 255 258 261 263 264 263 264 264 263 262 263 260 264 258 263 260 262 262 263 265 266 268 267 268 267 268 268 268 268 268 267 267 266 266 266 265 264 264 264 264 264 264 264 264 264 263 263 263 263 264 264 263 263 263 263 264 264 265 264 264 265 265 266 266 267 267 267 267 268 268 268 269 270 270 271 272 273 274 276
262 260 262 261 260 259 260 261 264 265 263 260 263 264 264 264 265 263 263 261 258 262 259 262 263 264 260 264 265 267 267 266 266 267 266 267 266 267 267 266 265 264 264 263 263 263 263 263 263 263 263 263 263 263 262 262 262 263 263 262 263 263 263 263 264 264 264 264 265 265 265 266 266 266 267 267 268 268 268 269 269 270 271 272 273 275
262 261 258 256 258 260 259 260 263 263 260 262 262 262 264 264 264 261 260 259 264 259 257 264 262 263 264 264 265 266 267 268 268 267 267 267 267 266 266 266 265 263 263 263 263 262 262 262 262 262 262 262 262 262 262 262 262 262 262 261 262 262 262 262 263 263 263 264 264 264 265 265 265 266 266 267 267 267 268 268 268 269 270 271 272 274
261 259 256 257 257 258 258 260 259 259 260 262 262 262 262 263 263 260 259 261 261 259 257 261 258 262 265 266 267 268 269 269 268 268 268 267 266 265 264 263 263 262 262 261 262 262 261 261 261 261 261 261 261 260 261 261 261 261 261 261 261 262 261 262 262 262 262 263 263 264 264 264 265 265 266 266 266 266 266 267 267 268 269 270 271 273
262 260 255 256 254 256 259 257 257 259 260 260 259 261 262 262 262 262 262 262 262 259 261 262 262 262 266 267 269 268 270 271 269 269 267 265 264 264 263 262 262 261 261 261 261 261 261 261 261 260 260 260 260 259 259 260 260 260 260 260 261 261 261 261 261 261 262 262 262 263 264 264 264 264 265 265 265 265 265 266 267 267 268 269 270 272
261 259 262 257 256 257 257 258 260 259 258 256 259 261 261 261 262 263 262 262 262 262 262 262 261 261 267 269 267 267 267 268 266 265 266 266 265 263 262 262 262 261 260 261 260 260 261 260 260 260 259 259 259 258 259 259 260 260 259 260 260 260 260 261 260 261 261 261 262 263 263 263 263 264 263 264 264 264 264 265 265 266 267 268 269 270
261 259 256 257 256 255 255 256 259 258 258 257 257 259 259 259 258 260 260 262 261 260 262 262 260 261 266 265 267 265 266 266 264 265 265 264 264 263 262 262 261 260 260 260 260 260 260 260 259 259 258 258 258 258 258 259 259 259 258 259 259 259 260 259 260 260 260 261 262 262 262 262 262 262 263 263 263 263 264 264 265 265 266 267 268 269
256 259 257 258 255 253 254 254 255 256 257 255 257 260 261 261 262 262 263 264 263 264 260 259 260 265 265 266 263 264 264 264 264 265 265 264 263 263 262 261 260 260 260 259 259 259 259 259 259 258 258 258 257 257 258 259 258 257 258 258 258 259 259 259 259 260 260 261 261 261 262 262 261 261 262 262 262 262 263 263 264 264 265 266 267 268
255 258 258 257 253 254 252 251 255 255 250 254 261 262 263 261 261 260 260 262 264 264 263 265 263 263 264 264 264 264 262 264 265 263 263 263 263 262 262 260 259 259 259 259 259 259 259 259 258 258 258 257 257 258 258 258 257 257 258 258 258 258 258 258 259 259 259 260 260 261 261 261 261 261 261 261 261 262 262 262 263 264 265 266 266 267
258 259 258 256 254 254 253 254 253 248 252 260 262 263 262 261 261 261 262 262 263 264 264 263 264 264 265 266 265 264 263 261 260 261 261 261 262 262 261 260 259 259 258 258 258 258 258 258 258 257 257 257 257 258 257 257 257 257 257 257 257 258 257 258 258 259 259 259 260 260 260 260 260 260 260 261 261 261 261 261 262 263 264 265 265 266
258 258 258 255 256 255 253 252 244 251 256 258 262 263 264 262 262 260 259 262 263 264 264 263 264 265 265 263 261 262 261 261 261 260 260 261 261 261 260 259 259 258 257 258 257 257 257 257 256 256 256 257 257 256 257 256 257 257 256 257 257 257 257 258 258 258 259 259 259 259 259 259 259 259 260 260 260 260 260 261 261 262 263 264 264 266
261 259 258 255 254 250 251 251 253 255 255 259 259 261 262 260 260 259 256 260 263 264 264 263 264 261 260 260 260 260 260 261 261 261 261 260 259 259 258 257 257 256 257 257 257 257 257 257 256 256 256 256 256 256 255 256 257 256 255 255 256 256 257 257 257 257 258 258 258 258 259 259 258 258 259 259 259 259 260 260 260 261 262 262 263 264
263 258 259 255 252 255 252 251 251 251 248 255 261 262 263 262 262 263 260 257 264 264 263 263 262 261 260 260 260 259 259 260 260 261 259 258 258 257 257 257 257 257 257 256 257 256 256 256 256 255 255 254 254 254 255 256 255 255 254 254 255 256 255 256 256 257 258 257 258 258 258 258 258 258 258 259 258 259 259 260 260 260 261 262 262 263
262 262 259 257 255 254 251 249 248 245 252 260 261 262 263 263 262 262 259 255 262 261 262 262 262 261 260 260 259 259 259 259 260 261 259 258 258 258 256 257 256 256 256 255 255 254 254 254 254 254 254 253 253 254 255 255 254 254 253 254 254 254 254 255 256 256 256 256 257 257 257 258 258 258 258 258 258 259 258 259 259 260 261 261 262 263
258 258 258 255 251 252 250 249 249 250 252 259 260 262 263 263 263 261 251 253 260 260 260 261 261 260 260 260 260 259 260 259 261 260 258 258 258 257 256 255 255 255 255 255 254 254 254 255 253 253 253 253 252 254 254 253 253 252 252 252 253 253 253 254 255 256 256 256 256 257 257 258 257 258 258 258 258 258 258 259 259 259 260 261 262 262
254 255 255 254 254 254 255 253 252 254 258 261 261 262 263 263 261 253 249 258 262 262 260 261 261 261 261 259 260 258 261 260 259 257 257 257 256 256 256 256 255 254 253 253 253 255 253 252 252 252 252 252 252 253 253 253 252 251 251 252 252 251 253 254 255 255 255 256 256 256 256 257 257 257 257 258 257 258 258 258 259 259 260 260 261 262
250 250 252 250 251 252 254 251 253 255 260 263 261 263 263 260 251 252 261 254 259 262 261 261 260 260 260 259 260 261 259 255 258 257 257 256 255 255 255 255 255 254 254 254 254 253 252 252 252 252 252 252 253 253 252 252 251 251 251 251 251 252 254 254 253 254 255 255 255 256 256 256 256 257 256 257 257 257 257 258 259 259 259 259 260 260
255 251 252 252 251 250 248 249 249 246 255 259 260 260 259 256 259 261 258 257 260 261 261 261 261 260 260 259 259 259 257 255 255 256 256 256 255 255 254 254 253 253 252 252 252 253 252 251 251 251 251 252 252 252 252 251 250 250 251 250 251 252 253 253 253 253 254 254 254 255 255 256 255 255 256 256 256 256 256 256 257 257 258 259 259 260
258 254 253 252 254 253 250 246 249 258 261 260 262 259 259 262 260 258 261 261 259 260 261 261 261 261 261 259 260 258 256 256 256 255 256 255 255 255 254 254 253 252 252 252 252 252 252 251 251 251 251 251 252 251 251 251 250 250 250 250 252 252 252 252 252 253 253 253 253 254 254 254 254 255 255 255 255 255 255 255 256 257 258 259 260 261
259 258 258 257 258 255 254 257 261 259 259 261 261 262 259 257 255 259 260 262 261 260 261 261 262 261 261 260 259 259 257 256 255 256 254 254 254 254 253 253 252 252 252 251 251 251 251 250 250 250 250 251 251 251 251 251 250 249 249 250 252 251 251 251 252 252 252 252 253 253 253 254 254 254 254 254 255 254 254 255 257 257 259 260 261 261
254 256 255 256 258 258 260 260 261 259 257 257 260 260 259 258 256 255 257 259 262 261 261 260 260 260 259 259 257 257 256 257 255 255 254 254 254 254 253 252 252 252 251 251 251 251 251 250 250 250 249 250 251 251 251 250 250 248 249 251 251 251 251 251 251 251 251 252 252 252 253 253 253 253 253 254 254 255 256 256 257 257 258 260 260 261
255 254 255 256 255 255 254 259 258 260 262 260 261 260 257 258 259 256 257 258 259 259 259 259 258 258 257 256 255 256 255 254 253 254 253 253 252 252 252 251 251 251 251 250 251 251 250 250 249 249 249 249 251 251 251 251 250 250 251 250 251 251 251 250 250 250 251 251 252 252 252 252 252 252 253 254 255 256 256 257 258 258 258 259 259 260
257 255 256 257 254 255 256 260 258 257 259 260 260 260 261 259 256 256 258 258 257 255 256 255 255 255 255 254 255 254 254 254 253 253 253 253 252 252 251 251 251 251 251 251 251 250 250 249 249 249 249 249 250 251 251 250 250 250 250 250 250 250 250 250 250 250 251 251 252 252 252 252 252 252 253 254 255 255 256 257 258 258 258 259 260 260
256 256 255 255 254 257 259 260 260 261 259 260 260 260 260 261 258 254 254 254 254 254 253 252 253 254 254 254 254 253 252 253 253 252 252 252 251 251 251 251 251 250 250 250 250 250 249 249 249 249 249 249 250 250 250 250 250 250 250 250 251 250 250 250 250 251 251 251 251 251 252 252 252 252 253 253 255 256 257 257 257 258 259 260 261 262
256 255 256 255 254 254 255 258 257 256 257 260 259 259 258 258 258 256 254 253 252 253 252 252 251 250 251 252 252 252 251 252 252 251 250 250 251 251 250 250 250 250 249 250 250 249 249 249 249 249 249 249 250 250 250 250 250 250 250 251 251 251 250 250 250 250 250 251 251 251 252 252 252 253 253 254 254 255 256 259 259 259 259 259 263 264
256 258 258 255 255 256 260 261 260 260 260 261 261 258 256 256 256 255 254 253 253 253 252 252 252 250 250 250 250 250 250 250 250 250 249 249 249 249 249 249 248 248 249 249 249 249 249 249 249 249 249 249 250 250 249 249 250 250 251 251 251 251 250 250 250 250 250 251 251 252 252 252 252 253 253 254 255 255 255 256 258 261 262 263 263 265
Wind_Speed
0 8 9 10 9 10 12 14 12 1 4 3 2 6 8 8 6 4 1 2 1 3 8 10 11 11 10 6 7 6 8 11 11 10 9 9 9 9 10 10 11 11 11 11 12 14 15 15 14 13 12 13 13 15 17 16 17 16 15 14 16 13 13 11 11 10 9 10 10 7 7 4 5 5 6 8 7 7 7 8 7 6 4 5 4 5
3 8 10 6 3 7 10 9 5 1 2 4 4 5 7 7 6 4 3 3 2 4 3 7 10 11 4 9 8 5 9 11 9 9 9 10 9 8 10 11 11 9 8 12 13 15 15 15 17 14 13 15 17 17 17 18 16 15 16 16 14 13 13 12 11 9 7 7 7 7 6 4 5 6 7 8 9 8 8 8 8 7 7 7 6 4
6 10 4 4 2 1 5 7 6 9 9 7 9 8 7 5 2 2 4 4 4 3 5 6 9 7 6 7 9 10 9 8 9 9 9 8 9 9 10 10 11 11 12 13 14 15 15 16 17 14 14 14 14 14 16 15 16 16 15 15 14 13 13 12 12 11 9 9 8 9 6 6 5 6 5 7 8 9 9 10 10 9 8 6 6 6
5 7 5 3 3 5 4 6 8 8 8 9 8 9 10 2 5 4 5 5 3 2 1 7 9 4 6 8 9 7 7 8 9 10 11 10 10 10 11 10 10 12 12 14 15 15 15 15 15 16 16 15 14 15 15 17 17 13 15 15 15 13 13 12 13 13 11 10 9 8 7 8 7 6 5 8 11 11 12 11 10 10 9 9 7 8
2 5 3 2 5 7 8 7 9 8 10 11 12 11 10 5 4 6 1 3 3 1 1 5 5 5 7 6 4 6 7 8 7 9 9 10 9 9 8 10 11 12 12 12 14 15 15 16 17 16 15 14 15 15 16 16 15 12 15 16 15 12 13 13 14 16 13 11 11 11 9 10 9 9 10 11 11 11 10 9 11 9 8 8 7 8
8 2 4 3 4 6 7 6 9 8 9 9 13 14 12 7 3 3 3 5 3 5 9 8 4 8 7 6 6 6 5 6 6 8 9 8 9 9 10 10 10 10 11 12 13 13 14 14 14 16 16 17 15 16 15 14 14 16 14 16 16 12 13 14 16 17 13 12 11 12 12 11 10 10 10 12 10 9 10 10 8 9 9 10 8 9
2 3 2 3 5 6 8 8 7 9 8 8 5 11 14 11 4 5 6 4 6 9 6 11 9 5 5 6 6 6 6 7 6 8 8 8 8 8 9 9 9 10 10 11 12 13 15 15 15 16 17 16 16 15 14 13 14 16 15 15 16 13 12 14 15 17 13 13 12 13 10 9 8 8 7 8 8 7 7 7 9 8 9 11 10 9
4 1 2 1 5 7 6 7 6 9 8 7 4 2 8 11 11 9 10 10 8 6 3 4 7 10 6 5 7 7 7 5 5 7 8 7 8 9 8 9 10 10 11 10 12 13 14 14 15 16 15 15 15 14 14 13 14 16 16 16 16 13 13 14 15 15 15 12 12 12 12 9 10 9 9 10 9 8 7 7 8 8 8 9 9 10
0 2 3 5 5 5 7 2 3 12 8 1 2 2 5 10 12 11 9 9 3 2 8 9 3 4 7 3 3 9 7 5 4 5 7 7 7 8 9 9 9 10 10 11 11 13 14 14 14 14 15 14 14 14 15 14 13 14 14 15 16 16 14 15 18 16 15 14 13 12 11 11 9 9 8 8 8 8 9 9 9 8 8 8 9 10
2 3 4 4 3 4 3 3 3 4 11 2 4 6 4 5 4 2 7 6 2 3 12 10 10 7 8 5 6 6 5 7 8 7 7 7 7 7 7 8 9 9 9 9 11 11 12 12 13 13 12 14 14 13 14 14 13 14 14 16 18 18 15 15 17 16 16 15 13 13 14 14 11 10 9 8 10 10 10 10 10 9 9 8 8 9
1 1 3 4 3 5 3 2 2 4 2 5 4 5 4 3 3 2 1 2 2 7 15 7 8 7 10 6 8 9 4 5 11 7 7 7 7 8 7 8 7 8 8 8 9 10 11 11 11 12 14 14 14 13 14 14 15 14 15 16 18 17 15 16 17 17 17 15 14 13 14 14 14 14 11 11 11 11 11 11 11 10 9 9 9 9
1 2 1 3 5 3 3 1 3 1 3 3 2 3 5 3 4 3 2 4 6 9 6 1 10 10 11 3 3 6 5 7 9 11 10 9 8 6 7 6 7 8 8 8 9 10 11 11 12 12 14 14 15 15 16 15 15 14 15 16 18 18 18 16 16 17 16 14 14 14 15 14 13 13 11 12 12 12 11 11 11 10 9 9 9 9
1 4 2 2 2 12 5 3 3 2 3 3 1 4 6 4 3 4 4 6 10 9 2 3 3 3 12 5 6 9 8 8 7 9 10 10 9 7 7 7 6 7 7 8 9 9 10 11 12 13 13 13 15 15 15 15 14 14 15 17 18 19 18 17 16 16 16 16 15 15 15 14 13 13 13 11 12 11 10 10 10 11 10 10 10 10
3 2 7 6 2 9 7 3 1 2 4 4 5 7 6 5 4 7 7 1 3 0 1 2 2 4 4 4 4 7 9 9 10 10 10 9 9 8 6 6 6 7 7 7 8 9 10 10 11 11 12 13 12 15 14 14 14 13 13 16 16 16 17 16 16 16 16 16 15 15 14 13 12 13 12 11 12 12 11 10 10 10 10 10 10 11
2 3 4 8 3 8 6 5 4 3 5 5 2 2 4 4 3 6 6 8 6 1 4 2 7 6 9 3 5 9 9 10 9 9 9 9 8 7 6 6 6 7 7 7 8 9 10 10 11 10 11 11 12 14 13 13 13 13 13 15 16 17 17 17 17 15 16 14 15 15 13 13 12 12 11 10 11 11 12 11 11 10 10 10 10 10
1 3 3 3 6 6 7 6 3 5 5 2 0 2 3 4 7 5 3 3 1 2 3 3 4 4 3 5 5 7 9 8 9 9 8 8 7 6 6 6 6 7 7 7 8 9 10 10 10 10 11 11 11 13 12 14 13 13 13 14 15 15 15 15 16 14 14 14 12 14 15 14 13 12 11 10 11 11 11 11 11 11 10 10 10 10
2 2 6 6 4 4 8 6 4 4 3 3 0 4 2 3 2 2 2 2 2 2 7 5 1 3 6 5 7 9 8 8 7 8 8 8 7 6 6 6 7 6 7 8 8 8 10 10 11 10 11 11 11 12 13 13 13 14 13 14 15 15 14 15 14 13 13 13 12 13 14 14 14 14 14 12 14 13 12 11 10 11 11 11 11 11
3 3 6 6 4 4 7 3 1 9 3 3 3 3 6 1 2 1 6 2 1 9 6 8 10 5 6 3 11 9 9 9 8 7 7 7 6 7 6 6 6 6 7 7 8 8 9 9 11 10 10 11 11 12 13 13 12 12 11 13 14 15 16 16 14 14 13 14 12 13 14 14 13 12 13 12 13 12 12 12 11 11 11 12 12 11
2 4 2 2 3 5 9 2 3 5 11 5 4 5 3 4 5 6 2 8 7 8 6 4 10 6 9 3 6 12 11 11 9 8 7 7 6 6 6 6 6 6 6 7 8 8 9 10 10 11 11 11 11 11 11 11 11 12 11 12 12 14 13 14 12 12 11 12 10 10 12 14 12 12 11 12 12 11 12 13 12 12 12 12 12 12
1 2 1 2 8 6 3 5 0 9 5 1 2 2 2 2 4 3 2 3 3 8 7 5 10 7 7 5 6 11 10 10 9 8 6 7 6 5 5 5 6 7 7 7 8 8 9 9 10 11 11 12 12 12 11 11 11 13 12 13 13 12 12 14 14 13 13 12 11 12 12 12 11 12 11 12 12 12 12 12 12 12 13 13 12 12
2 2 4 1 7 4 2 5 4 6 7 8 7 5 5 3 2 2 6 2 5 6 8 9 8 3 4 7 4 9 10 9 8 8 7 6 5 6 5 5 6 6 7 7 7 8 9 10 10 10 10 10 10 10 11 10 11 12 12 13 14 14 14 15 14 13 12 12 12 14 14 13 12 14 12 13 12 12 12 12 12 12 11 11 11 12
2 1 4 5 7 4 3 5 3 4 4 3 3 3 4 6 4 5 9 5 2 3 8 5 11 5 2 7 4 8 8 8 7 8 7 6 5 5 4 6 6 5 6 7 7 8 8 9 10 10 10 10 10 11 14 12 11 12 13 13 13 13 13 14 14 13 13 12 11 14 13 13 12 12 12 13 12 12 13 12 12 13 13 12 12 12
2 1 1 4 2 4 7 6 1 2 3 7 5 4 3 2 2 3 7 2 5 3 3 1 6 1 4 5 4 7 8 8 7 6 6 5 4 4 4 4 5 5 6 6 7 7 7 8 9 9 10 11 12 12 13 12 12 12 13 13 13 13 14 14 13 12 13 12 12 14 13 12 12 13 13 13 12 13 14 13 13 12 13 13 13 12
1 1 1 1 2 2 0 2 2 4 2 1 5 6 4 4 5 3 4 5 3 7 6 7 6 2 2 0 4 6 7 7 5 5 6 4 4 4 3 4 4 4 5 5 6 6 7 8 9 9 11 11 12 12 13 11 11 11 12 13 13 14 15 14 13 13 13 13 13 14 13 13 12 14 13 13 11 14 14 13 12 12 13 13 12 14
2 1 1 3 2 2 3 3 2 0 1 3 3 3 3 4 6 6 3 4 1 5 6 7 11 2 2 5 4 4 4 4 5 5 4 4 4 3 3 3 3 4 4 5 6 7 7 8 10 10 10 10 11 11 11 12 12 11 12 13 14 13 13 13 12 13 13 13 14 14 13 14 13 13 14 13 12 14 14 13 13 12 13 13 13 13
1 1 1 2 3 4 2 1 1 1 3 3 1 0 2 6 7 6 3 4 1 1 8 4 3 4 5 4 6 4 4 4 4 4 3 2 3 3 3 3 3 3 4 5 5 7 8 8 8 9 10 9 10 11 12 12 11 11 12 13 13 13 13 14 12 13 13 13 13 13 14 14 14 14 14 14 13 14 13 13 13 13 12 12 13 13
0 1 0 2 3 6 4 4 3 2 4 4 7 5 7 2 1 1 4 7 10 9 6 8 6 4 3 8 10 8 7 7 6 6 5 5 4 4 3 3 3 2 4 5 5 6 6 7 9 9 9 9 10 10 11 11 12 11 12 13 13 12 12 13 13 14 13 13 13 13 13 14 14 13 13 13 13 13 13 13 13 13 13 12 13 13
1 1 1 1 4 2 3 3 5 4 6 8 8 9 7 5 5 4 7 9 5 6 14 1 2 2 5 9 9 10 8 7 6 6 5 5 5 4 3 3 3 3 3 3 4 6 7 7 8 9 9 10 10 10 11 10 10 11 11 13 13 12 12 11 13 14 13 13 12 12 13 13 13 13 12 12 13 13 13 13 13 13 12 12 13 13
1 0 2 1 3 3 4 4 4 3 4 6 7 8 9 10 7 7 9 9 8 10 15 1 2 2 7 8 11 11 11 9 9 8 6 5 5 5 3 2 1 1 2 3 4 5 7 8 8 9 9 10 11 11 12 11 10 10 10 11 11 11 12 12 13 13 13 12 12 13 13 13 12 12 12 13 13 13 14 14 14 14 13 12 12 11
0 0 1 0 3 5 3 1 1 2 3 4 6 9 10 11 11 11 10 8 9 11 10 11 9 14 12 8 5 3 1 6 5 5 5 6 5 5 4 2 1 0 2 3 4 6 6 7 8 8 10 10 10 12 12 10 10 11 12 12 11 11 12 12 12 12 12 12 12 12 13 13 12 12 13 13 13 13 13 13 13 13 13 13 13 13
1 1 5 2 1 5 2 2 2 3 1 5 8 10 11 9 10 12 11 10 11 12 14 14 15 16 12 3 5 4 5 4 5 5 6 5 5 4 3 2 2 1 2 3 5 6 6 7 7 8 9 10 10 12 11 10 10 11 11 11 11 12 12 11 12 11 11 12 11 12 13 12 12 13 13 13 13 13 14 14 13 13 13 13 13 14
2 1 3 1 3 2 3 6 4 4 4 7 12 13 11 11 11 11 10 11 11 14 13 14 14 11 4 6 3 4 4 5 6 6 5 4 4 3 2 2 2 1 2 4 5 7 7 8 8 9 9 10 10 11 10 11 11 12 12 11 11 12 12 11 11 12 12 11 12 12 12 12 13 13 13 13 14 13 13 13 13 14 14 13 14 13
1 0 1 1 2 2 1 2 4 6 8 9 7 4 5 8 11 11 11 11 11 11 12 12 13 4 4 2 2 3 4 5 4 5 6 4 3 2 2 2 2 1 2 3 5 6 7 8 8 9 10 9 9 10 10 11 11 12 12 12 12 12 12 12 11 12 11 11 11 12 11 12 12 13 13 13 14 13 13 13 13 13 13 14 14 14
0 1 0 1 1 1 2 6 3 4 5 4 4 0 3 5 6 8 10 9 9 5 9 7 5 2 2 4 5 6 7 5 3 2 3 0 1 2 2 2 2 1 2 3 5 6 6 7 7 8 9 10 10 10 10 10 10 11 11 11 12 12 12 12 12 11 12 11 11 11 11 11 12 13 13 13 13 13 13 13 14 14 13 12 12 12
2 1 1 1 1 2 2 3 4 4 8 2 2 3 4 3 4 8 11 11 11 11 11 12 11 7 8 6 3 2 3 4 3 1 1 2 2 3 3 2 1 2 2 4 5 6 7 8 8 9 10 10 10 10 10 10 9 10 10 11 11 11 12 11 12 12 11 11 11 11 11 12 12 13 13 13 13 13 13 13 13 13 12 12 13 13
3 2 2 1 1 1 1 2 1 3 1 9 13 11 3 2 6 5 11 14 15 13 13 11 10 7 4 3 2 2 2 2 1 2 4 3 2 3 4 2 1 2 4 5 7 7 8 8 9 10 10 10 10 10 10 10 10 11 11 11 11 11 11 11 12 12 11 11 11 11 12 12 13 13 13 13 13 13 14 13 13 14 13 12 12 12
3 2 2 1 2 2 0 2 9 8 12 6 2 5 4 1 4 3 5 5 2 4 6 9 4 3 3 3 3 2 1 1 3 4 7 5 4 2 1 1 1 3 5 6 6 8 8 8 9 9 9 10 10 11 10 10 11 11 12 12 11 11 11 11 11 11 11 11 11 12 12 12 13 14 13 13 13 13 12 13 14 13 11 13 12 12
6 3 1 1 1 3 3 6 3 3 3 4 4 4 2 1 3 3 2 10 6 6 3 5 5 5 5 4 4 3 1 2 5 2 5 5 4 4 2 1 2 3 4 6 7 8 9 9 9 9 9 10 10 10 10 11 10 12 11 11 11 12 11 11 11 12 12 12 12 12 12 12 13 13 14 13 13 14 13 12 12 12 11 11 13 13
1 1 2 4 3 1 1 2 2 2 5 2 3 5 3 2 1 3 3 9 2 2 4 4 4 5 6 7 6 5 3 4 5 3 4 7 5 3 3 2 3 4 4 5 6 8 8 8 8 9 10 10 11 10 11 11 12 11 11 11 11 11 12 11 11 11 11 12 13 14 13 13 13 13 14 14 14 13 14 13 12 12 11 11 12 13
3 2 4 5 5 3 1 3 7 4 5 2 1 2 4 2 2 3 8 4 3 3 4 4 5 6 6 6 7 5 5 6 4 2 4 6 4 3 2 4 4 5 5 5 5 7 8 8 9 10 9 10 11 11 11 10 10 10 11 11 11 11 12 12 11 12 12 13 13 12 12 13 14 14 14 15 15 13 13 12 13 13 12 12 11 12
2 1 3 9 5 7 9 9 3 6 6 7 7 5 5 4 3 3 8 1 4 4 5 4 4 5 7 7 6 5 4 1 3 4 5 4 3 3 3 3 4 4 5 5 6 7 7 7 7 8 9 10 10 10 9 9 9 9 10 10 11 11 12 12 12 13 13 12 12 13 14 13 13 15 16 15 15 14 14 13 13 14 13 13 12 12
1 1 0 2 5 9 8 8 10 8 5 4 2 7 7 5 3 8 1 1 0 3 4 4 4 5 6 7 6 4 2 3 3 3 3 4 4 4 4 4 4 5 5 5 6 7 7 7 7 9 9 10 9 9 8 9 9 9 10 10 11 13 12 12 12 12 13 13 13 14 14 14 14 14 13 14 14 14 15 14 14 13 14 12 12 13
3 4 3 4 1 2 0 2 4 6 0 4 10 4 1 4 4 2 2 0 1 1 4 4 4 5 5 5 5 3 2 3 3 3 3 3 4 4 4 4 5 6 7 7 7 6 8 8 8 9 10 10 9 8 8 9 10 10 9 10 13 12 12 12 12 12 13 13 14 13 14 14 15 14 12 13 14 15 16 14 13 13 12 13 13 13
3 3 1 2 5 2 3 4 6 3 2 6 9 4 7 6 2 2 1 1 3 2 4 4 5 5 6 5 5 4 4 3 3 4 4 4 4 5 5 5 5 6 7 6 7 9 8 9 9 9 10 10 9 8 8 8 9 9 10 12 12 11 11 11 12 12 12 12 13 13 13 14 14 14 13 14 14 14 14 14 13 13 11 11 11 12
10 7 2 4 4 6 6 6 2 1 2 5 5 2 1 1 1 2 2 2 3 4 4 4 5 5 6 6 5 5 4 5 5 4 4 5 4 6 6 6 6 7 7 8 8 8 8 8 10 10 11 12 11 9 8 8 9 11 12 12 11 10 11 11 11 11 11 13 13 13 13 13 13 13 13 13 13 13 12 13 12 12 11 10 11 11
2 1 2 1 6 4 11 11 5 3 4 5 5 4 4 3 2 3 4 3 4 2 4 5 3 4 4 4 4 4 5 4 4 4 5 6 6 7 6 6 7 7 7 7 8 9 8 9 9 10 11 13 12 10 9 9 8 10 12 12 11 11 10 10 11 11 11 12 13 13 14 14 14 13 13 13 12 12 12 12 12 11 12 11 11 11
3 2 2 4 0 2 8 3 6 11 8 6 8 3 2 4 5 6 5 5 2 3 3 2 2 3 3 3 5 5 4 3 5 5 5 6 7 7 6 7 8 8 8 9 9 9 8 8 8 10 11 12 12 10 9 9 9 10 11 10 11 10 10 10 10 11 11 12 12 13 13 13 12 12 12 12 11 11 11 11 11 11 12 11 11 11
3 5 3 10 5 7 13 6 4 3 4 3 3 4 7 6 7 6 6 2 2 1 1 2 3 3 3 4 5 5 5 4 5 5 5 6 7 6 6 7 8 8 7 8 9 9 9 8 9 10 11 11 11 10 10 10 9 11 10 9 11 9 9 10 10 10 11 13 12 12 11 11 15 14 11 11 11 11 11 10 10 11 12 11 11 11
2 6 6 3 4 8 10 14 11 9 11 11 9 8 7 4 3 5 6 4 3 4 3 2 2 2 4 4 3 4 5 6 6 6 7 7 6 6 6 7 7 8 9 10 10 9 8 9 10 11 12 12 11 10 11 11 11 10 10 10 9 8 9 9 10 11 12 12 11 11 11 11 11 11 11 11 11 11 11 12 12 12 13 13 12 12
3 10 4 0 8 10 11 6 5 3 6 1 4 6 5 5 5 4 4 5 6 7 5 6 4 2 2 2 4 4 6 6 5 5 7 7 7 7 8 8 8 10 10 9 9 9 9 10 10 11 12 11 10 10 10 11 11 10 9 8 8 8 8 9 9 11 11 10 9 10 10 10 10 11 11 11 11 12 13 16 20 17 14 14 19 24
11 10 8 9 7 8 2 4 6 7 7 5 2 2 1 3 5 6 7 7 7 7 6 7 6 4 5 5 4 5 6 6 7 5 7 7 7 6 7 7 8 8 8 9 9 9 9 10 10 11 12 10 10 9 10 10 10 11 10 8 7 7 8 8 9 10 11 10 9 10 11 11 11 10 11 11 11 12 13 13 14 17 22 24 24 25
Wind_Direction
90 200 202 210 218 205 206 213 224 95 69 73 237 242 245 247 245 89 39 96 271 196 208 199 209 201 171 93 62 51 53 57 58 55 56 52 48 43 42 42 39 39 33 19 21 20 17 16 12 11 9 6 7 12 11 12 12 12 9 3 9 1 358 4 356 358 352 356 349 350 4 355 7 27 36 43 33 32 37 28 27 22 27 26 32 5
205 226 226 215 192 206 212 215 224 143 249 250 251 236 244 225 250 127 129 117 200 247 182 202 209 216 133 61 43 38 52 44 39 52 57 58 55 45 36 35 35 35 31 21 21 16 17 15 13 14 13 10 12 8 10 13 7 7 6 10 1 4 359 3 359 346 338 350 338 316 326 338 36 35 44 43 33 29 36 29 23 11 13 20 26 39
205 225 227 200 124 240 226 217 220 230 230 231 244 250 256 242 228 214 139 133 160 199 216 171 203 198 69 63 54 51 63 65 56 57 63 62 54 45 32 30 29 27 23 21 19 16 15 14 15 17 14 13 13 8 10 5 6 7 10 6 2 2 1 356 356 353 346 334 331 332 336 356 47 34 23 57 42 32 32 30 25 16 11 8 18 16
227 227 242 121 153 190 192 206 210 221 236 237 232 238 240 204 180 230 130 143 145 255 156 187 210 141 101 83 70 59 77 78 71 69 62 55 57 48 41 33 28 25 20 21 16 13 13 15 15 15 14 11 9 10 8 8 6 6 8 3 359 0 1 356 357 352 340 335 327 327 346 351 34 29 1 40 40 28 28 26 19 20 15 12 12 16
242 72 13 141 189 206 212 193 202 215 231 224 233 239 244 181 200 253 80 139 111 138 308 150 219 203 169 151 117 93 94 88 84 79 69 60 60 59 54 45 36 31 24 19 16 15 14 15 18 16 13 12 15 11 9 7 7 3 3 1 358 0 2 358 356 354 348 352 358 357 1 15 13 21 19 24 28 22 18 21 18 14 9 9 10 12
251 144 83 129 178 206 216 205 211 219 241 233 225 231 239 237 177 118 124 172 213 209 185 203 255 237 135 136 133 127 135 106 88 73 63 62 52 45 42 36 33 36 33 29 23 19 17 17 15 17 15 16 15 12 7 5 6 5 3 4 2 2 6 0 358 359 2 9 12 10 17 12 11 15 16 22 14 11 8 9 357 8 12 12 10 16
313 75 228 211 190 199 214 231 205 207 244 248 258 206 226 234 203 194 187 188 249 254 168 197 226 249 129 179 154 134 132 127 94 69 68 57 47 45 39 35 31 26 25 27 27 23 21 17 17 18 18 14 14 8 3 4 6 7 7 6 6 7 6 3 359 3 6 13 15 20 23 24 18 9 3 359 10 8 353 359 4 356 9 14 15 14
142 105 156 217 215 218 220 230 190 192 225 246 57 247 211 218 209 202 203 213 245 59 79 249 230 256 243 158 143 144 129 114 100 82 69 61 55 48 45 38 34 30 27 25 24 25 23 22 20 17 15 15 11 3 5 6 6 7 8 8 9 8 11 8 2 5 10 14 13 15 18 20 19 14 358 359 358 355 344 353 358 355 7 7 11 12
351 139 206 202 213 227 237 287 111 197 217 313 34 334 210 205 213 202 206 221 249 324 253 194 216 253 254 105 154 162 159 164 158 113 82 71 58 56 49 41 38 38 35 31 29 24 21 19 18 15 15 13 11 10 9 7 5 6 7 11 12 13 13 9 7 8 10 15 15 15 14 16 14 6 2 358 2 359 356 5 4 0 358 4 9 12
41 21 22 321 245 253 29 14 331 229 225 124 109 91 70 61 53 180 213 220 175 206 243 215 179 233 250 127 170 192 226 191 167 132 100 85 76 59 51 42 42 40 37 35 33 28 25 21 19 15 14 17 13 9 9 8 9 10 8 12 15 14 13 7 8 10 9 14 16 17 14 15 10 4 360 5 7 5 1 6 5 1 1 359 360 5
247 360 269 24 350 357 357 28 313 274 302 111 151 122 93 87 109 91 88 186 107 237 244 185 181 202 263 182 178 174 202 190 138 133 114 104 87 73 60 48 39 39 34 30 29 29 26 24 21 17 20 16 14 12 10 10 11 9 12 10 15 15 11 10 10 10 10 12 16 16 12 12 10 5 3 6 8 5 5 6 3 2 357 358 360 360
62 132 102 73 18 329 308 304 49 259 133 191 167 159 136 106 135 137 148 167 206 244 239 154 176 194 227 197 83 59 62 124 138 140 131 108 91 79 65 57 46 40 35 28 27 23 18 18 19 18 18 15 12 12 11 10 9 10 11 10 12 14 12 10 9 10 12 12 14 13 12 10 8 7 6 8 6 3 2 3 359 356 356 359 357 360
153 62 14 75 78 29 343 300 98 125 194 203 180 195 194 194 150 197 150 205 205 231 54 1 164 162 232 41 90 82 74 80 89 106 115 112 104 89 74 64 52 43 36 33 27 23 18 16 12 13 12 11 13 11 7 8 8 6 8 9 12 12 10 9 8 10 10 13 13 11 9 8 5 6 7 6 6 360 0 359 357 357 359 355 356 357
117 102 38 334 107 14 345 276 177 168 202 215 207 199 201 203 197 220 195 286 273 325 128 153 243 263 80 97 117 101 84 88 93 95 96 101 96 89 78 64 56 45 39 35 30 23 22 16 12 13 11 11 10 10 8 7 9 6 7 8 10 8 9 7 8 9 8 10 11 10 10 7 5 4 2 6 3 356 357 355 354 356 355 354 353 348
244 181 47 358 63 0 18 44 358 333 343 239 13 284 258 247 212 226 202 208 221 242 100 244 138 231 213 98 102 108 105 99 96 98 97 96 94 88 81 71 58 48 40 35 30 28 21 16 14 13 12 10 9 9 9 8 8 5 6 7 6 5 6 8 8 7 8 6 6 8 8 9 8 5 1 3 0 354 355 353 349 352 353 353 347 345
305 335 51 297 290 338 9 348 313 303 266 273 194 355 268 274 357 266 354 297 44 182 161 182 215 30 49 91 136 112 113 107 105 104 108 99 95 95 82 65 52 41 38 30 27 27 23 21 17 16 14 9 8 8 7 8 6 7 6 5 6 6 2 4 4 7 5 2 1 5 6 6 6 5 2 0 358 354 355 349 350 347 348 348 345 344
329 201 357 329 110 30 6 334 18 315 235 79 101 219 335 356 312 319 115 127 37 316 244 150 178 112 131 132 153 134 123 116 115 113 108 105 99 87 75 65 48 42 33 29 26 23 21 18 19 18 13 10 9 8 7 4 4 4 2 3 2 3 4 4 1 1 1 358 1 4 3 2 2 4 4 360 354 354 352 350 349 349 342 343 347 344
324 318 37 9 55 53 358 285 334 46 332 302 234 357 334 145 335 266 257 135 271 246 249 156 207 154 176 245 142 153 146 141 133 123 113 108 102 86 75 56 48 37 35 34 30 28 23 20 17 14 15 12 8 7 4 4 4 3 3 3 0 2 3 1 358 358 359 356 358 359 360 0 360 359 356 356 353 354 352 351 351 347 347 347 343 344
338 284 139 14 297 313 343 206 167 73 25 31 333 338 309 236 214 203 224 247 238 237 238 209 225 218 203 170 140 178 163 152 141 127 124 114 98 88 74 63 51 40 34 28 27 22 20 19 14 11 10 9 8 9 5 2 3 2 2 4 3 2 0 359 355 355 354 357 356 354 353 356 356 358 355 352 350 352 354 353 350 347 344 342 341 344
270 285 293 149 13 322 351 360 311 338 352 98 270 39 29 320 292 326 219 343 321 268 257 225 164 221 60 24 184 180 155 149 134 129 121 96 86 74 61 56 42 37 31 25 22 20 17 14 12 9 6 5 4 5 4 3 3 3 1 2 1 1 0 0 359 358 354 355 353 351 350 354 354 355 354 352 349 353 352 348 346 345 345 344 340 340
341 55 270 44 340 297 360 32 26 9 346 345 8 0 18 350 331 342 309 260 259 267 258 269 254 140 41 351 192 167 155 133 137 125 110 105 86 72 61 46 48 39 32 25 19 14 12 10 8 8 6 3 2 5 4 3 3 2 1 1 1 0 358 1 357 356 353 350 349 349 351 350 353 354 351 351 352 353 349 346 345 345 341 336 341 338
2 28 277 353 339 358 59 52 8 342 335 346 350 21 354 349 319 248 253 95 340 246 255 247 250 81 11 11 86 104 125 105 102 108 108 103 89 78 70 56 43 42 35 29 20 13 11 7 4 6 3 4 5 3 3 1 359 1 2 0 356 359 359 357 354 354 349 349 345 348 346 348 349 352 349 350 351 354 349 345 344 342 341 341 338 339
43 34 314 300 342 318 343 351 360 321 38 64 44 20 12 340 3 278 260 288 7 284 66 199 296 326 47 335 97 108 105 105 106 108 112 112 102 99 84 67 67 52 36 29 21 15 9 7 3 1 2 3 5 3 0 360 360 357 357 358 357 357 355 355 349 348 346 344 346 345 346 346 348 351 349 351 351 352 347 344 342 340 339 338 334 336
105 348 276 243 316 257 355 90 88 40 304 184 66 35 25 47 36 360 327 339 293 309 322 259 234 111 340 293 97 93 98 100 101 111 124 130 126 111 99 87 69 56 46 33 27 15 11 9 2 4 2 2 1 360 358 356 355 354 356 357 353 354 351 352 349 347 345 343 343 344 345 348 348 350 352 352 350 347 344 342 341 338 336 333 334 334
313 97 21 313 300 171 142 130 127 161 81 51 4 20 16 20 13 314 284 262 274 248 264 272 260 82 192 132 137 109 123 119 129 132 128 147 139 127 123 110 80 64 44 31 23 15 10 10 8 7 1 359 356 353 354 353 351 353 353 355 352 349 348 348 345 345 344 343 342 344 345 345 347 349 350 350 347 343 342 342 339 337 335 332 332 331
301 39 305 301 308 297 286 286 305 337 8 352 170 22 26 49 335 336 324 291 273 132 64 269 299 107 138 160 183 180 183 171 153 143 139 147 139 138 127 116 93 61 41 28 14 13 9 7 5 4 359 357 355 351 349 348 348 349 350 352 350 345 345 345 343 343 342 342 343 342 343 344 346 345 345 345 344 342 340 337 335 334 333 332 328 327
112 24 274 255 257 269 312 358 76 10 308 287 298 322 309 351 304 167 278 272 259 292 307 260 254 278 189 206 197 204 198 197 182 174 171 165 152 138 123 107 87 66 40 22 11 7 0 2 2 1 356 357 350 350 347 344 343 345 345 346 348 345 344 341 341 340 340 341 341 340 342 343 343 341 340 341 339 336 336 335 333 332 330 330 327 326
69 214 66 95 248 294 29 242 303 335 273 284 287 287 302 301 281 270 259 251 15 7 276 45 150 216 258 181 208 213 210 217 213 189 181 165 166 158 154 122 104 72 46 23 4 3 356 354 354 354 353 353 349 348 343 342 340 341 343 341 342 342 344 340 340 338 337 338 339 339 339 338 335 336 335 335 335 334 334 332 331 330 327 327 327 327
62 250 28 53 274 260 238 267 3 321 254 268 284 289 289 282 274 249 243 244 262 248 257 186 223 231 271 170 211 200 210 206 193 190 177 159 149 143 137 155 155 75 35 8 359 1 349 350 348 347 349 347 346 345 343 340 339 339 338 339 335 339 340 338 338 333 334 335 335 336 335 333 332 332 332 333 333 334 334 333 330 328 327 326 324 323
198 330 141 190 296 308 298 36 34 267 293 277 249 261 267 271 268 264 261 250 236 247 258 280 269 268 272 264 222 164 161 193 161 137 128 147 167 166 158 167 169 4 355 352 351 349 345 344 343 342 345 344 345 344 339 337 337 338 337 335 335 337 335 337 334 332 331 332 330 330 331 329 329 329 331 332 333 332 331 331 329 327 326 325 324 323
339 95 84 170 318 294 319 38 159 340 298 274 262 250 252 253 262 262 263 255 248 254 260 261 263 262 258 242 113 114 104 102 122 160 187 179 162 160 177 180 178 305 329 338 338 341 340 338 340 339 343 339 343 340 336 331 333 331 333 329 333 333 331 335 327 326 327 326 326 328 328 327 327 329 329 329 330 328 329 328 328 325 323 323 324 325
9 256 84 122 319 280 23 8 343 334 278 273 275 261 246 238 246 247 242 245 236 250 254 256 256 258 247 105 117 120 176 182 188 193 188 181 178 187 181 206 180 244 316 326 336 336 336 338 338 341 338 337 336 335 332 330 330 331 327 329 331 327 328 326 320 322 322 321 324 326 327 326 325 326 325 328 327 326 325 324 323 324 323 322 323 322
16 358 311 336 294 271 3 20 335 316 297 281 252 253 250 245 236 256 260 263 259 261 267 257 258 322 52 115 130 227 182 214 206 208 203 183 162 194 203 202 198 222 309 324 332 332 333 333 334 334 333 331 332 327 325 327 327 323 323 327 324 324 323 320 320 318 317 320 323 324 325 324 324 322 324 324 324 323 322 321 321 321 322 320 319 318
144 171 138 157 252 270 328 321 294 303 295 267 80 50 268 258 276 258 260 260 264 248 255 290 317 63 198 156 202 215 191 211 209 112 39 132 200 201 199 172 193 258 305 321 327 328 326 330 327 326 327 326 322 319 318 323 317 315 318 320 319 319 317 319 316 315 316 318 321 321 323 322 321 320 319 319 319 319 318 319 318 317 316 313 313 314
163 155 178 151 227 263 4 303 294 241 238 54 332 257 240 278 290 266 275 281 278 276 270 272 265 240 237 236 247 16 91 81 63 218 175 232 254 261 248 214 214 280 313 319 327 326 324 324 322 321 324 322 320 322 318 316 315 312 320 317 315 316 314 314 311 313 313 316 318 320 321 319 319 318 317 317 317 315 314 313 313 314 315 315 314 312
182 184 157 193 218 233 191 154 2 247 337 294 275 271 236 202 253 287 281 263 257 259 268 270 269 269 237 171 98 86 91 79 109 222 211 199 213 238 230 226 255 328 322 322 325 322 323 323 321 321 318 316 321 314 313 312 314 319 314 312 314 309 310 308 308 307 311 314 316 319 319 318 316 314 312 312 312 311 310 310 311 311 311 309 305 302
165 116 183 246 156 250 258 232 254 332 316 282 228 136 164 231 169 216 283 297 123 260 244 257 240 131 139 113 124 113 95 284 279 238 175 180 173 173 167 207 351 318 317 321 320 314 318 318 317 313 313 315 311 312 310 311 317 314 313 314 312 307 310 305 304 305 308 312 313 315 315 315 312 311 310 310 308 305 304 305 307 305 307 304 302 300
184 196 186 197 223 162 254 289 289 286 280 269 164 79 79 34 52 40 8 287 255 222 209 248 240 173 161 156 155 138 122 249 264 199 157 172 167 168 149 203 292 307 313 308 312 311 311 312 312 315 312 309 306 302 308 314 312 312 308 307 309 313 308 303 305 308 312 310 311 311 311 309 307 306 306 306 304 302 301 299 296 295 296 294 297 298
175 77 176 228 258 128 237 227 238 237 245 69 167 130 123 119 134 250 301 287 45 132 175 209 211 170 174 170 168 143 202 246 268 110 154 167 179 179 212 267 289 298 293 295 299 300 303 306 307 309 311 304 300 303 314 313 311 309 307 306 309 305 303 304 306 308 306 305 308 309 306 306 305 305 303 302 301 299 299 298 294 293 292 288 286 285
144 190 206 228 230 218 211 244 255 203 253 72 182 171 153 146 192 245 295 297 120 207 192 197 204 175 181 171 161 182 211 257 288 90 123 164 162 191 196 262 270 271 277 281 285 286 291 300 307 304 299 297 296 306 310 308 306 304 301 303 304 303 301 305 309 307 307 305 302 300 302 305 304 303 304 303 300 297 293 293 296 295 290 286 284 285
181 210 198 233 232 239 225 253 299 273 243 244 227 144 145 170 197 251 241 315 144 180 183 205 210 180 169 167 182 197 227 353 56 105 130 153 163 234 236 244 254 269 276 284 287 300 305 295 288 285 290 291 295 300 300 301 301 296 295 300 302 294 298 307 310 309 304 303 303 302 300 302 302 303 304 302 301 298 296 295 292 292 290 287 283 280
175 142 281 51 234 234 239 244 254 280 259 162 151 154 152 155 212 225 254 27 117 173 169 194 201 175 176 186 197 242 79 126 105 123 173 202 223 248 259 262 275 275 274 278 292 305 301 297 291 291 288 287 291 298 299 297 293 291 296 298 290 293 306 309 306 303 304 305 302 302 302 302 302 302 299 300 300 298 295 294 293 290 286 284 282 280
173 163 204 201 167 61 59 250 297 285 26 120 119 115 180 216 272 62 103 239 164 255 174 197 200 179 182 211 228 252 125 173 192 218 223 237 242 257 265 282 294 297 302 305 302 305 308 302 295 292 294 295 296 295 295 294 291 289 292 289 286 298 306 303 303 303 303 301 301 301 302 302 302 301 299 297 295 294 294 292 292 286 282 280 279 279
142 240 227 232 180 241 184 186 208 229 87 175 169 198 194 227 62 179 187 170 178 227 199 201 212 201 202 222 232 227 226 236 238 223 245 243 260 279 281 281 283 286 290 287 293 304 309 298 295 294 292 295 294 293 291 290 288 290 292 286 291 303 299 299 300 300 301 300 299 300 301 300 299 298 297 295 294 292 288 290 289 286 283 280 279 283
179 205 197 256 164 190 223 222 206 119 179 208 238 320 53 67 170 185 226 295 178 216 219 234 221 204 216 226 235 239 235 221 242 246 251 268 274 279 283 284 290 292 292 296 296 300 302 293 295 298 297 297 299 296 289 289 289 288 286 287 302 300 297 296 297 298 297 297 298 299 298 297 296 295 293 291 290 291 289 288 290 289 287 284 283 281
344 354 63 359 246 295 281 252 262 246 211 238 254 239 238 176 181 183 193 220 224 209 183 217 231 210 198 206 222 228 230 246 230 247 262 277 280 280 279 284 285 281 281 286 294 303 299 296 293 291 290 295 301 301 291 288 281 278 280 295 299 294 294 295 296 295 292 292 296 297 296 296 295 292 289 289 286 281 282 286 286 284 287 286 281 279
230 152 158 232 320 43 270 58 223 246 260 224 230 229 227 226 216 181 210 225 221 182 202 231 223 207 192 169 211 240 234 217 247 262 269 274 272 272 273 279 282 284 288 295 296 306 301 299 296 292 293 292 299 301 296 294 289 283 290 290 292 294 292 289 288 287 287 292 296 298 296 295 295 298 295 291 290 285 285 283 281 280 280 280 279 278
259 156 222 235 229 216 254 245 225 219 250 257 221 240 240 218 208 207 218 226 201 117 225 191 166 192 158 196 212 222 245 239 244 261 264 264 269 275 279 280 282 289 285 291 298 298 293 290 288 291 294 291 295 301 298 295 288 294 290 282 292 284 286 287 286 288 290 295 298 295 293 292 290 292 293 292 291 292 290 284 280 278 276 276 276 277
108 125 241 168 211 253 279 272 268 271 252 240 233 237 253 261 189 200 208 202 196 198 190 170 212 201 190 219 171 208 237 247 244 258 264 269 269 273 272 276 281 285 293 298 300 299 287 289 290 287 289 287 293 297 297 295 295 295 295 292 290 288 290 289 291 289 288 292 294 290 292 291 290 289 290 292 290 286 282 284 285 279 276 271 267 265
136 231 190 97 265 257 245 250 102 287 281 245 189 220 220 218 206 191 166 204 204 206 191 192 204 219 239 210 196 203 229 250 245 237 253 258 267 275 280 281 283 290 290 290 291 287 285 281 279 283 286 288 294 295 293 294 295 295 292 289 286 287 290 293 298 296 296 297 294 293 298 299 297 293 293 291 294 295 292 281 274 269 270 276 272 268
200 215 168 212 206 250 206 197 187 230 265 278 276 128 183 169 175 187 201 208 210 208 189 192 199 199 217 221 203 210 224 238 246 236 252 257 260 259 265 273 279 280 280 292 293 286 280 283 285 284 284 287 296 294 294 292 292 295 295 289 286 289 287 293 299 301 300 300 298 298 300 297 295 293 295 294 295 295 295 300 295 276 264 262 265 270